Theta_e
305 303 303 302 302 301 300 299 299 298 298 298 297 297 297 297 298 298 298 297 298 298 298 298 297 297 297 297 297 297 297 297 297 297 297 297 297 297 297 297 297 297 297 297 297 297 297 297 297 297 297 297
304 302 302 302 301 300 300 299 298 297 297 297 297 297 297 297 297 297 297 297 297 297 297 297 297 297 297 297 297 297 297 297 297 297 297 296 296 296 296 296 296 296 296 296 296 296 296 297 297 297 297 297
302 302 302 301 301 300 299 298 297 297 297 297 297 296 296 296 296 297 296 297 297 297 297 297 297 297 297 297 297 297 297 297 297 296 296 296 296 296 296 296 296 296 296 296 296 296 296 296 296 296 297 297
301 301 301 301 300 299 298 297 297 296 296 296 296 296 296 296 296 296 296 296 296 296 296 296 296 296 296 297 297 297 297 297 297 297 296 296 296 296 296 296 296 296 296 296 296 296 296 296 296 296 296 296
301 301 301 300 300 299 298 296 296 296 296 296 296 296 296 296 296 296 296 296 296 296 296 296 296 296 296 296 296 296 296 296 296 296 296 296 296 296 296 296 296 296 295 295 295 295 295 295 295 296 296 296
301 300 300 300 299 298 297 295 295 295 295 295 295 295 295 295 295 295 296 295 296 295 295 296 296 296 296 296 296 296 296 296 296 296 296 296 296 296 296 296 295 295 295 295 295 295 295 295 295 295 296 295
300 300 300 300 299 298 296 295 295 295 295 295 295 295 295 295 295 295 295 295 295 295 295 295 295 295 295 296 296 296 296 296 296 296 296 296 296 296 296 295 295 295 295 295 295 295 295 295 295 295 295 295
300 300 300 300 299 297 296 295 295 294 294 295 295 295 295 295 295 295 295 295 295 295 295 295 295 295 295 295 295 295 295 295 295 295 295 295 295 295 295 295 295 295 295 295 295 295 295 295 295 295 295 295
300 300 300 299 298 297 295 295 294 294 294 294 294 294 295 295 294 294 294 294 294 295 295 295 295 295 295 295 295 295 295 295 295 295 295 295 295 295 295 295 295 295 295 295 295 295 295 295 295 295 295 295
299 299 299 299 299 297 296 295 294 294 294 294 294 294 294 294 294 294 294 294 294 294 294 295 295 295 295 295 295 295 295 295 295 295 295 295 295 295 295 295 295 295 295 295 295 295 295 295 295 295 295 295
299 299 299 299 299 298 296 295 294 294 294 294 294 294 294 294 294 294 294 294 294 294 294 295 294 295 295 295 295 294 294 294 294 294 294 294 294 294 295 295 295 295 295 295 295 295 295 295 295 295 295 295
299 298 298 299 298 297 296 294 294 294 294 294 294 294 293 293 294 294 294 294 294 294 294 294 294 294 294 294 294 294 294 294 294 294 294 294 294 294 294 294 294 294 294 295 295 295 295 295 295 295 295 295
298 298 298 298 298 297 295 294 294 294 294 294 294 294 293 294 294 293 294 294 294 294 294 294 294 294 294 294 294 294 294 294 294 294 294 294 294 294 294 294 294 294 294 294 294 294 294 294 294 294 294 294
298 298 298 299 298 297 295 294 293 293 294 294 293 293 293 293 293 293 293 293 293 294 294 294 294 294 294 294 294 294 294 294 294 294 294 294 294 294 294 294 294 294 294 294 294 294 294 294 294 294 294 294
298 298 298 299 298 297 296 294 293 293 293 293 293 293 293 293 293 293 293 293 293 293 293 293 293 294 293 294 294 294 294 294 294 294 294 294 294 294 294 294 294 294 294 294 294 294 294 294 294 294 294 294
298 298 298 298 298 297 295 293 293 293 293 293 293 293 293 293 293 293 293 293 293 293 293 293 293 293 293 293 293 293 294 294 294 294 294 294 294 294 294 294 294 294 293 293 293 293 293 293 293 293 293 293
297 298 298 298 297 296 295 293 293 293 293 293 293 293 293 293 293 293 293 293 293 293 293 293 293 293 293 293 293 293 293 293 293 293 294 294 293 293 293 293 293 293 293 293 293 293 293 293 293 293 293 293
297 298 298 298 297 296 295 293 293 293 292 293 293 293 293 293 293 293 293 293 293 293 293 293 293 293 293 293 293 293 293 293 293 293 293 293 293 293 293 293 293 293 293 293 293 293 293 293 293 293 293 293
297 297 297 297 296 296 295 294 293 293 292 292 292 293 293 292 293 293 293 293 293 293 293 293 293 293 293 293 293 293 293 293 293 293 293 293 293 293 293 293 293 293 293 293 293 293 293 293 293 293 293 293
297 297 296 296 296 295 295 294 293 292 292 292 292 293 292 292 292 292 293 293 293 293 293 292 292 292 293 293 293 293 293 293 293 293 293 293 293 293 293 293 293 293 293 293 293 293 293 293 293 293 293 293
296 296 295 296 295 295 295 295 293 292 292 292 292 292 292 292 292 292 293 293 293 293 293 292 292 292 292 293 293 293 293 293 293 293 293 293 293 293 293 293 293 293 293 293 293 293 293 293 293 293 293 293
296 295 295 295 295 295 295 294 293 292 292 292 292 292 292 292 292 292 293 293 293 292 292 292 292 292 292 292 293 293 293 293 293 293 293 293 293 293 293 293 293 292 293 293 292 292 292 292 292 292 292 292
295 294 294 294 294 294 294 294 293 291 291 291 292 292 292 292 292 292 293 293 293 292 292 292 292 292 292 292 293 293 293 293 293 293 293 293 293 292 292 292 292 292 292 292 292 292 292 292 292 292 292 292
294 294 294 294 294 294 294 294 293 291 291 291 291 291 291 292 292 292 292 292 292 292 292 291 291 292 292 292 292 293 293 293 293 293 293 292 292 292 292 292 292 292 292 292 292 292 292 292 292 292 292 292
294 294 294 294 294 294 294 294 293 292 291 291 291 291 291 291 292 292 292 292 292 292 292 291 291 292 292 292 292 292 292 292 292 292 292 292 292 292 292 292 292 292 291 291 291 291 291 291 291 291 291 291
295 295 294 294 294 294 293 294 294 293 291 291 291 291 291 291 292 292 292 292 292 292 292 291 291 291 292 292 292 292 292 292 292 292 292 292 292 292 291 291 291 291 291 291 291 291 291 291 291 291 291 291
295 295 294 294 294 293 293 293 294 293 292 291 291 291 291 291 291 292 292 292 292 292 292 291 291 291 291 292 291 291 292 292 292 292 292 292 291 291 291 291 290 290 290 290 290 290 290 290 290 291 291 291
295 294 294 293 293 293 293 293 293 293 292 291 291 291 291 291 291 291 291 291 292 292 292 291 291 291 291 291 291 291 291 291 291 291 291 291 291 291 290 290 290 290 290 290 289 289 290 290 291 291 291 291
294 293 293 293 293 292 292 292 292 292 292 291 291 291 291 290 291 291 291 291 291 291 292 291 291 291 291 291 291 291 291 291 291 291 291 291 290 290 290 290 289 289 289 289 289 289 289 290 290 290 291 291
294 294 293 293 293 293 292 292 292 292 292 292 291 291 291 291 290 290 290 291 291 291 291 291 291 291 291 291 291 291 291 290 290 290 290 290 290 289 289 289 289 288 288 288 288 288 288 289 289 290 290 290
294 293 293 293 293 293 293 292 292 292 292 292 292 292 291 291 291 290 290 290 290 291 291 291 291 291 291 291 290 291 290 290 290 290 290 290 290 289 289 288 288 288 288 287 288 288 288 288 288 288 288 288
Wind_Speed
16 15 14 14 13 11 10 10 9 9 9 10 10 10 10 9 9 8 7 7 7 7 7 7 7 6 6 5 4 3 2 2 1 1 2 2 2 3 3 4 4 4 5 5 6 6 6 6 6 6 6 6
17 16 15 14 13 12 11 11 10 10 10 11 11 11 10 10 9 8 8 7 7 7 8 8 7 7 6 5 4 3 2 1 1 1 2 2 3 3 4 4 4 5 5 6 6 6 6 6 6 6 6 5
18 17 16 14 13 12 12 11 11 11 12 12 12 11 11 10 9 9 8 8 8 8 8 8 7 7 6 5 4 3 2 0 1 1 2 3 3 4 4 4 5 5 6 6 6 6 6 6 6 6 5 5
18 17 16 15 14 13 13 12 12 13 13 13 13 12 12 11 10 9 9 9 8 8 8 8 7 7 6 5 4 3 2 1 1 2 2 3 3 4 4 4 5 5 6 6 6 6 6 5 5 5 5 5
19 17 16 15 15 14 14 14 14 14 14 14 14 14 13 12 11 10 9 9 9 9 9 8 8 7 6 5 4 3 2 2 2 2 2 3 3 3 4 4 4 5 5 5 5 5 4 4 4 4 4 5
20 18 17 16 16 16 15 16 16 16 16 16 15 14 13 12 11 11 10 10 9 9 9 9 8 7 6 5 4 4 3 3 2 2 2 2 2 2 3 3 3 3 3 3 3 3 3 3 3 3 4 4
20 19 19 18 18 17 17 18 17 18 17 17 16 15 14 13 13 11 11 10 10 10 10 9 9 8 7 6 5 5 4 4 4 3 3 2 2 2 2 2 2 2 2 2 2 2 3 3 3 3 4 4
22 21 20 19 18 17 18 18 18 19 19 18 17 16 16 14 13 11 11 12 12 11 11 10 9 9 8 7 7 6 5 5 5 4 3 3 3 3 3 3 3 3 3 2 2 2 3 3 4 4 4 4
24 23 21 19 18 18 19 19 19 20 19 18 18 18 16 14 14 13 14 13 13 13 12 11 11 10 9 8 8 7 7 6 6 5 4 4 4 4 4 4 3 3 3 3 3 3 3 3 4 4 5 4
26 24 22 20 19 20 20 20 21 20 20 19 19 19 16 16 16 16 15 15 14 14 13 12 12 11 10 10 9 9 8 7 7 6 6 5 5 5 5 4 4 4 3 3 3 3 3 3 4 4 5 5
27 25 22 20 21 21 21 22 22 22 21 21 20 19 17 18 17 17 16 16 15 15 14 14 13 12 11 11 10 10 9 8 8 7 7 7 6 6 6 5 5 4 4 3 3 3 3 3 4 4 5 5
28 25 23 22 22 22 22 22 23 23 22 22 21 20 19 19 19 18 18 17 17 16 16 15 14 13 12 12 11 11 10 10 9 9 8 8 7 7 6 6 5 5 4 4 4 4 4 3 4 4 4 5
29 26 25 24 24 24 23 23 24 24 24 24 22 21 21 21 20 20 19 18 18 17 16 15 15 14 13 13 12 12 12 11 11 10 9 9 8 8 7 7 6 6 6 5 5 4 4 4 4 4 4 5
30 28 28 26 25 25 24 24 25 25 25 24 23 23 23 22 21 21 20 20 19 18 17 16 15 15 14 14 14 13 13 12 12 11 10 10 9 9 8 8 7 7 6 6 5 4 4 4 3 3 4 4
32 30 30 27 25 26 25 25 26 26 26 25 25 25 23 23 23 22 21 20 20 19 17 17 17 16 16 15 15 15 14 13 12 12 11 10 9 9 8 8 7 6 6 5 4 3 3 3 3 3 3 4
33 32 31 28 26 26 26 27 28 27 26 26 27 26 24 24 24 23 22 21 20 19 18 18 18 18 17 17 16 16 15 14 13 12 11 10 10 9 8 7 6 6 5 4 3 2 2 2 2 2 2 3
35 34 32 28 27 27 27 28 28 27 27 28 28 27 26 26 25 24 23 22 21 20 20 20 19 19 18 18 17 16 15 14 13 12 11 11 10 9 8 7 6 5 4 3 3 2 1 1 1 1 2 3
36 35 33 29 28 28 28 29 29 28 28 29 29 28 27 27 26 25 24 22 21 21 21 20 20 20 19 19 18 17 16 15 14 13 12 11 10 9 8 7 6 6 4 4 3 2 1 1 1 2 2 3
38 36 34 31 29 30 29 29 28 29 30 30 31 29 28 28 27 26 25 23 22 22 22 21 21 21 21 19 18 18 17 15 14 13 12 11 10 10 9 8 7 6 5 4 3 3 2 1 1 2 3 4
38 36 34 31 30 30 29 28 29 30 31 31 32 30 29 29 27 26 26 24 23 23 23 22 22 22 21 20 19 18 17 16 15 14 13 12 11 11 10 9 8 7 6 5 4 4 3 3 3 3 4 4
39 36 35 32 30 31 29 29 29 30 31 32 33 32 30 30 28 27 26 24 24 24 24 23 23 23 22 21 20 19 18 17 16 15 14 13 13 12 11 10 9 8 7 7 6 5 5 5 5 6 6 6
38 36 35 33 31 32 31 29 29 30 32 33 33 33 32 31 29 28 27 25 25 25 24 25 25 25 23 23 22 20 20 19 18 17 16 15 14 13 12 12 11 10 9 8 8 7 7 8 8 9 9 9
37 36 34 33 32 32 32 30 30 31 33 34 34 34 33 32 30 29 28 26 26 26 26 27 27 26 25 24 23 22 22 21 20 19 18 17 16 15 14 13 12 12 11 11 10 10 10 11 11 11 11 11
38 37 35 34 33 34 34 32 31 32 33 35 35 35 35 33 31 30 29 28 28 28 28 28 28 27 26 25 25 24 24 23 21 20 19 18 17 17 16 15 14 13 13 13 13 12 12 12 12 12 13 13
40 40 38 37 36 36 35 33 32 33 34 35 35 35 35 34 32 31 31 31 30 29 29 29 29 28 27 27 27 26 25 24 23 22 21 20 19 19 18 17 16 14 14 14 14 13 13 13 13 13 13 14
41 41 40 39 37 36 35 34 34 34 34 35 35 35 35 35 34 33 34 33 31 30 30 29 30 30 29 29 28 27 26 25 25 24 23 23 22 21 20 19 17 16 16 14 12 12 13 13 14 15 15 15
40 40 40 38 37 35 34 34 34 33 34 34 34 35 35 36 35 35 35 35 32 31 31 31 31 31 31 30 30 29 28 28 27 27 26 25 24 23 22 21 19 18 17 15 11 10 13 14 13 14 16 17
38 38 37 36 35 34 33 32 31 32 32 33 34 34 36 36 37 37 37 36 34 32 32 32 32 32 33 32 31 30 30 30 29 29 28 27 25 24 24 23 21 20 19 17 13 12 13 12 10 13 16 18
36 36 36 35 33 31 30 30 30 31 32 33 34 35 36 37 37 37 37 36 35 34 33 33 32 33 34 34 33 33 32 32 32 31 30 28 27 26 26 24 23 22 21 19 17 17 15 12 12 13 13 14
36 37 37 36 36 35 34 34 33 34 34 34 35 35 35 36 36 36 36 36 36 35 35 34 33 33 34 34 35 35 35 34 34 34 33 31 29 29 28 26 25 25 24 22 21 22 21 19 19 17 14 14
35 36 37 36 37 38 38 37 36 35 33 32 33 33 33 33 34 35 35 36 37 38 38 36 35 34 34 35 36 37 37 37 36 36 35 34 32 31 29 28 29 28 26 26 26 25 25 25 25 24 23 24
Wind_Direction
207 207 208 207 206 207 205 204 204 201 198 193 191 188 186 186 184 182 182 181 179 176 171 165 161 158 159 160 159 160 157 144 126 92 76 63 53 49 47 48 49 52 55 57 58 58 58 58 56 57 57 60
210 210 210 210 207 207 208 207 204 202 199 195 191 190 189 187 187 186 185 186 185 182 177 175 174 175 177 178 180 179 172 151 83 57 54 54 52 50 50 48 50 52 54 56 56 58 58 59 59 58 59 59
212 212 212 211 209 209 209 207 204 203 200 196 192 192 192 191 190 189 190 190 189 188 186 186 186 188 190 192 194 198 203 219 3 16 21 28 33 34 36 36 38 40 43 46 48 51 53 56 60 62 67 69
213 213 213 212 211 211 210 208 204 202 200 196 194 196 196 194 194 195 197 195 194 195 195 197 197 199 201 204 209 216 236 268 317 345 358 5 13 17 20 22 24 28 32 35 38 41 45 50 56 62 67 69
214 214 214 214 213 212 209 207 203 201 199 197 198 199 200 200 200 201 203 201 201 201 203 205 206 209 212 217 226 236 253 271 294 316 331 343 353 358 5 9 11 16 22 25 30 31 35 41 43 49 53 57
215 215 216 215 214 212 208 205 203 202 200 199 201 203 204 205 205 206 207 207 207 208 208 211 212 216 221 226 233 240 250 260 268 281 294 309 323 334 345 350 356 2 7 11 14 14 14 15 12 26 32 31
216 216 217 217 216 213 209 208 205 203 202 202 204 205 208 209 210 211 211 210 209 210 212 214 217 220 225 229 233 238 242 248 252 256 264 272 287 297 305 311 324 327 330 338 343 348 345 343 342 356 13 10
218 218 219 219 217 216 213 211 207 205 205 206 207 208 212 213 214 213 212 212 211 213 215 218 221 224 228 231 234 238 240 243 245 246 252 257 268 275 283 291 294 294 298 299 307 320 324 329 331 331 342 354
219 220 221 220 218 217 216 213 210 209 209 208 209 212 215 214 212 212 212 215 216 217 218 221 225 228 230 233 234 236 237 238 239 240 242 246 252 258 264 268 272 276 280 285 293 301 309 318 325 326 324 336
221 222 222 221 221 220 218 216 213 212 211 210 213 216 216 214 214 215 216 217 219 221 222 225 227 230 230 231 232 232 234 233 233 233 234 237 239 243 246 249 253 258 264 273 280 287 296 303 309 317 315 320
222 223 223 224 224 223 221 219 216 214 212 212 215 216 215 215 217 217 218 219 221 223 224 226 228 229 229 229 229 229 229 231 231 231 232 233 234 237 239 241 245 247 255 261 267 276 280 288 295 303 306 306
222 223 224 224 224 224 223 221 219 217 215 216 217 216 215 217 218 219 220 220 221 223 225 226 227 227 227 227 227 228 227 229 231 231 231 232 233 235 236 237 240 242 245 251 254 262 267 275 283 288 299 299
222 224 225 225 225 225 223 221 220 218 218 219 218 217 217 218 219 219 220 220 221 223 225 225 226 226 226 226 227 227 227 228 229 229 230 230 232 233 235 236 236 238 239 243 244 248 257 261 270 279 290 298
223 224 226 226 226 226 225 223 221 220 221 220 219 219 219 220 220 220 221 221 222 224 225 224 224 225 225 225 226 227 227 227 227 228 229 228 230 231 233 235 235 237 237 240 244 247 255 262 273 283 292 300
224 225 228 228 227 228 226 224 222 221 222 220 219 221 220 220 221 222 222 223 224 225 224 223 224 224 223 224 225 225 225 226 227 227 228 228 230 231 231 234 234 234 234 237 243 249 259 269 281 293 303 309
225 226 229 228 227 228 226 225 224 223 222 220 221 222 220 221 222 224 225 225 226 225 224 223 223 223 223 224 224 225 224 225 226 225 226 226 227 229 228 229 230 230 228 230 232 241 259 271 286 305 314 319
226 228 229 228 227 228 227 225 226 225 223 222 224 223 221 222 223 225 227 227 228 226 224 224 224 224 224 225 225 225 223 223 224 223 223 224 224 224 223 222 222 224 218 217 222 224 241 268 299 328 336 341
228 230 230 228 228 229 228 227 228 226 224 224 225 225 223 223 224 226 227 228 229 227 227 226 225 226 226 226 224 222 222 222 222 223 222 222 222 221 220 219 217 219 215 214 218 220 234 261 315 347 353 354
229 231 231 228 228 229 229 229 230 227 226 226 226 227 224 224 225 227 228 228 228 228 228 228 226 226 226 225 223 221 221 221 222 222 221 221 221 220 219 219 220 222 223 224 227 231 241 259 310 341 345 347
229 230 231 229 229 232 231 230 230 228 228 228 228 228 225 225 226 226 229 229 229 230 229 227 226 227 226 224 222 221 221 222 222 221 221 221 220 221 221 220 222 224 226 229 232 239 250 264 279 296 311 321
229 229 230 230 231 234 234 232 231 229 229 229 230 230 226 226 226 226 229 230 230 231 230 228 227 227 225 223 222 222 222 222 222 221 220 220 220 221 221 221 223 224 226 229 234 244 256 267 274 281 289 293
227 227 229 231 231 234 234 233 233 231 231 231 231 231 229 227 227 228 230 231 232 232 231 228 227 228 225 223 223 222 222 222 223 221 219 219 219 219 219 221 222 224 229 234 243 251 258 268 272 274 276 279
225 225 227 230 230 232 234 233 232 232 232 232 232 232 232 229 228 230 232 232 233 233 231 229 229 230 226 224 224 223 224 224 223 220 219 218 217 218 219 221 224 229 237 244 252 258 265 268 267 269 272 273
223 223 224 227 228 230 232 231 231 232 232 233 234 234 234 233 230 231 233 233 233 233 232 230 231 231 228 226 226 225 226 225 223 221 220 220 219 220 222 226 230 237 244 251 255 261 266 265 265 272 276 274
224 224 224 225 227 229 231 231 230 231 232 233 235 235 236 236 233 233 234 234 234 233 233 232 232 233 230 228 227 227 227 225 223 222 221 221 223 224 227 231 236 240 246 252 258 264 266 266 271 278 278 271
228 227 228 228 229 230 232 233 233 232 233 235 237 237 238 238 237 235 236 236 235 235 235 234 234 234 232 229 229 228 226 226 225 224 224 225 227 229 232 234 236 239 244 251 261 269 266 269 279 279 271 264
230 229 229 230 230 231 233 235 236 236 236 237 238 240 241 241 240 238 238 238 237 236 236 236 236 236 234 231 230 230 229 229 229 229 229 230 232 233 235 236 236 239 243 248 253 253 254 264 275 268 259 262
231 230 229 229 230 232 234 236 238 237 237 238 239 241 242 243 243 241 241 241 240 239 239 239 238 238 237 235 233 232 232 233 233 235 235 236 236 237 238 239 240 243 244 244 240 238 245 253 255 253 258 270
230 228 227 226 226 227 228 231 233 233 233 235 237 239 241 243 245 245 245 245 243 243 243 242 241 240 240 239 237 235 235 236 237 237 238 239 238 239 241 243 244 246 246 243 238 240 243 238 240 248 257 271
230 229 228 226 225 224 224 225 228 232 234 235 237 239 241 244 246 248 248 248 247 246 245 244 244 243 243 243 242 240 238 239 239 239 240 240 238 239 241 244 246 247 248 247 242 241 243 242 248 254 251 259
231 230 229 229 229 229 228 228 229 233 236 238 240 242 244 246 248 250 250 250 250 249 248 247 247 246 246 247 247 245 244 243 243 244 245 244 243 242 242 243 245 247 248 251 250 247 247 248 251 255 255 259